TimeAKST,TemperatureF,Dew PointF,Humidity,Sea Level PressureIn,VisibilityMPH,Wind Direction,Wind SpeedMPH,Gust SpeedMPH,PrecipitationIn,Events,Conditions,WindDirDegrees,DateUTC
12:53 AM,-38.0,-9999,N/A,30.66,10.0,SW,11.5,-,N/A,,Partly Cloudy,230,2013-02-18 09:53:00
1:53 AM,-38.0,-9999,N/A,30.67,10.0,SW,12.7,-,N/A,,Clear,230,2013-02-18 10:53:00
2:53 AM,-38.0,-9999,N/A,30.68,10.0,SW,12.7,-,N/A,,Clear,230,2013-02-18 11:53:00
3:53 AM,-38.9,-9999,N/A,30.69,10.0,WSW,11.5,-,N/A,,Clear,240,2013-02-18 12:53:00
4:53 AM,-38.9,-9999,N/A,30.69,10.0,SW,11.5,-,N/A,,Clear,220,2013-02-18 13:53:00
5:53 AM,-40.0,-9999,N/A,30.70,10.0,SW,11.5,-,N/A,,Clear,230,2013-02-18 14:53:00
6:53 AM,-40.0,-9999,N/A,30.70,10.0,WSW,10.4,-,N/A,,Clear,240,2013-02-18 15:53:00
7:53 AM,-41.1,-9999,N/A,30.70,10.0,SW,10.4,-,N/A,,Clear,230,2013-02-18 16:53:00
8:53 AM,-41.1,-9999,N/A,30.71,10.0,WSW,11.5,-,N/A,,Clear,240,2013-02-18 17:53:00
9:53 AM,-42.0,-9999,N/A,30.71,10.0,WSW,10.4,-,N/A,,Clear,240,2013-02-18 18:53:00
10:53 AM,-41.1,-9999,N/A,30.71,10.0,SW,11.5,-,N/A,,Clear,230,2013-02-18 19:53:00
11:53 AM,-40.0,-9999,N/A,30.72,10.0,SW,10.4,-,N/A,,Clear,230,2013-02-18 20:53:00
12:53 PM,-40.0,-9999,N/A,30.72,10.0,SW,9.2,-,N/A,,Clear,230,2013-02-18 21:53:00
1:53 PM,-38.9,-9999,N/A,30.72,10.0,SW,9.2,-,N/A,,Clear,220,2013-02-18 22:53:00
2:53 PM,-38.9,-9999,N/A,30.71,10.0,SW,10.4,-,N/A,,Clear,230,2013-02-18 23:53:00
3:53 PM,-38.9,-9999,N/A,30.71,10.0,WSW,10.4,-,N/A,,Clear,240,2013-02-19 00:53:00
4:53 PM,-41.1,-9999,N/A,30.69,10.0,WSW,8.1,-,N/A,,Clear,240,2013-02-19 01:53:00
5:53 PM,-42.0,-9999,N/A,30.70,10.0,WSW,8.1,-,N/A,,Clear,250,2013-02-19 02:53:00
6:53 PM,-43.1,-9999,N/A,30.69,10.0,SW,6.9,-,N/A,,Clear,230,2013-02-19 03:53:00
7:53 PM,-43.1,-9999,N/A,30.68,10.0,SW,6.9,-,N/A,,Clear,230,2013-02-19 04:53:00
8:53 PM,-44.0,-9999,N/A,30.67,8.0,WSW,5.8,-,N/A,,Clear,240,2013-02-19 05:53:00
9:28 PM,-43.6,-9999,N/A,30.65,4.0,SW,5.8,-,N/A,,Scattered Clouds,230,2013-02-19 06:28:00
9:53 PM,-44.0,-9999,N/A,30.65,5.0,WSW,4.6,-,N/A,,Partly Cloudy,240,2013-02-19 06:53:00
10:53 PM,-45.0,-9999,N/A,30.65,7.0,WSW,6.9,-,N/A,,Partly Cloudy,240,2013-02-19 07:53:00
11:02 PM,-45.4,-9999,N/A,30.64,4.0,WSW,6.9,-,N/A,,Mostly Cloudy,250,2013-02-19 08:02:00
11:21 PM,-45.4,-9999,N/A,30.64,4.0,West,8.1,-,N/A,,Overcast,260,2013-02-19 08:21:00
11:44 PM,-43.6,-9999,N/A,30.62,4.0,West,6.9,-,N/A,,Scattered Clouds,280,2013-02-19 08:44:00
11:53 PM,-44.0,-9999,N/A,30.64,4.0,West,5.8,-,N/A,,Scattered Clouds,280,2013-02-19 08:53:00